#datetime,building,power
2023-02-10T00:00:00,sdl,1.73
2023-02-10T00:01:00,sdl,1.67
2023-02-10T00:02:00,sdl,2.04
2023-02-10T00:03:00,sdl,1.45
2023-02-10T00:04:00,sdl,1.53
2023-02-10T00:05:00,sdl,1.39
2023-02-10T00:06:00,sdl,1.33
2023-02-10T00:07:00,sdl,1.21
2023-02-10T00:08:00,sdl,1.29
2023-02-10T00:09:00,sdl,1.24
2023-02-10T00:10:00,sdl,1.28
2023-02-10T00:11:00,sdl,1.22
2023-02-10T00:12:00,sdl,1.24
2023-02-10T00:13:00,sdl,1.17
2023-02-10T00:14:00,sdl,1.04
2023-02-10T00:15:00,sdl,0.99
2023-02-10T00:16:00,sdl,1.10
2023-02-10T00:17:00,sdl,1.22
2023-02-10T00:18:00,sdl,2.29
2023-02-10T00:19:00,sdl,1.85
2023-02-10T00:20:00,sdl,1.50
2023-02-10T00:21:00,sdl,1.48
2023-02-10T00:22:00,sdl,3.67
2023-02-10T00:23:00,sdl,3.71
2023-02-10T00:24:00,sdl,3.70
2023-02-10T00:25:00,sdl,3.68
2023-02-10T00:26:00,sdl,3.67
2023-02-10T00:27:00,sdl,3.65
2023-02-10T00:28:00,sdl,3.59
2023-02-10T00:29:00,sdl,3.58
2023-02-10T00:30:00,sdl,4.03
2023-02-10T00:31:00,sdl,3.72
2023-02-10T00:32:00,sdl,3.65
2023-02-10T00:33:00,sdl,3.63
2023-02-10T00:34:00,sdl,3.69
2023-02-10T00:35:00,sdl,1.44
2023-02-10T00:36:00,sdl,3.13
2023-02-10T00:37:00,sdl,3.15
2023-02-10T00:38:00,sdl,3.17
2023-02-10T00:39:00,sdl,3.21
2023-02-10T00:40:00,sdl,3.24
2023-02-10T00:41:00,sdl,3.23
2023-02-10T00:42:00,sdl,3.50
2023-02-10T00:43:00,sdl,3.11
2023-02-10T00:44:00,sdl,3.26
2023-02-10T00:45:00,sdl,3.29
2023-02-10T00:46:00,sdl,3.17
2023-02-10T00:47:00,sdl,3.76
2023-02-10T00:48:00,sdl,3.59
2023-02-10T00:49:00,sdl,3.60
2023-02-10T00:50:00,sdl,5.44
2023-02-10T00:51:00,sdl,5.47
2023-02-10T00:52:00,sdl,5.48
2023-02-10T00:53:00,sdl,5.50
2023-02-10T00:54:00,sdl,5.82
2023-02-10T00:55:00,sdl,5.48
2023-02-10T00:56:00,sdl,5.40
2023-02-10T00:57:00,sdl,5.11
2023-02-10T00:58:00,sdl,3.34
2023-02-10T00:59:00,sdl,3.25
2023-02-10T01:00:00,sdl,3.28
2023-02-10T01:01:00,sdl,0.85
2023-02-10T01:02:00,sdl,0.88
2023-02-10T01:03:00,sdl,0.94
2023-02-10T01:04:00,sdl,1.04
2023-02-10T01:05:00,sdl,0.99
2023-02-10T01:06:00,sdl,1.32
2023-02-10T01:07:00,sdl,0.97
2023-02-10T01:08:00,sdl,1.11
2023-02-10T01:09:00,sdl,1.54
2023-02-10T01:10:00,sdl,1.25
2023-02-10T01:11:00,sdl,1.07
2023-02-10T01:12:00,sdl,1.05
2023-02-10T01:13:00,sdl,0.92
2023-02-10T01:14:00,sdl,0.86
2023-02-10T01:15:00,sdl,0.86
2023-02-10T01:16:00,sdl,1.05
2023-02-10T01:17:00,sdl,1.39
2023-02-10T01:18:00,sdl,1.82
2023-02-10T01:19:00,sdl,1.10
2023-02-10T01:20:00,sdl,1.12
2023-02-10T01:21:00,sdl,1.11
2023-02-10T01:22:00,sdl,1.13
2023-02-10T01:23:00,sdl,1.16
2023-02-10T01:24:00,sdl,1.58
2023-02-10T01:25:00,sdl,1.20
2023-02-10T01:26:00,sdl,1.13
2023-02-10T01:27:00,sdl,1.12
2023-02-10T01:28:00,sdl,1.10
2023-02-10T01:29:00,sdl,1.10
2023-02-10T01:30:00,sdl,3.56
2023-02-10T01:31:00,sdl,3.30
2023-02-10T01:32:00,sdl,3.35
2023-02-10T01:33:00,sdl,3.42
2023-02-10T01:34:00,sdl,3.35
2023-02-10T01:35:00,sdl,3.38
2023-02-10T01:36:00,sdl,3.40
2023-02-10T01:37:00,sdl,3.40
2023-02-10T01:38:00,sdl,3.54
2023-02-10T01:39:00,sdl,3.43
2023-02-10T01:40:00,sdl,3.37
2023-02-10T01:41:00,sdl,3.28
2023-02-10T01:42:00,sdl,3.57
2023-02-10T01:43:00,sdl,3.54
2023-02-10T01:44:00,sdl,3.29
2023-02-10T01:45:00,sdl,3.64
2023-02-10T01:46:00,sdl,1.47
2023-02-10T01:47:00,sdl,1.50
2023-02-10T01:48:00,sdl,1.54
2023-02-10T01:49:00,sdl,1.79
2023-02-10T01:50:00,sdl,1.83
2023-02-10T01:51:00,sdl,1.55
2023-02-10T01:52:00,sdl,1.55
2023-02-10T01:53:00,sdl,1.36
2023-02-10T01:54:00,sdl,1.38
2023-02-10T01:55:00,sdl,1.36
2023-02-10T01:56:00,sdl,1.36
2023-02-10T01:57:00,sdl,1.43
2023-02-10T01:58:00,sdl,1.37
2023-02-10T01:59:00,sdl,1.40
2023-02-10T02:00:00,sdl,1.40
2023-02-10T02:01:00,sdl,1.46
2023-02-10T02:02:00,sdl,1.47
2023-02-10T02:03:00,sdl,1.49
2023-02-10T02:04:00,sdl,1.53
2023-02-10T02:05:00,sdl,1.48
2023-02-10T02:06:00,sdl,1.50
2023-02-10T02:07:00,sdl,1.38
2023-02-10T02:08:00,sdl,1.26
2023-02-10T02:09:00,sdl,1.25
2023-02-10T02:10:00,sdl,1.23
2023-02-10T02:11:00,sdl,1.31
2023-02-10T02:12:00,sdl,1.26
2023-02-10T02:13:00,sdl,1.27
2023-02-10T02:14:00,sdl,1.26
2023-02-10T02:15:00,sdl,1.37
2023-02-10T02:16:00,sdl,1.34
2023-02-10T02:17:00,sdl,1.34
2023-02-10T02:18:00,sdl,2.12
2023-02-10T02:19:00,sdl,3.45
2023-02-10T02:20:00,sdl,5.12
2023-02-10T02:21:00,sdl,5.22
2023-02-10T02:22:00,sdl,5.15
2023-02-10T02:23:00,sdl,4.77
2023-02-10T02:24:00,sdl,4.75
2023-02-10T02:25:00,sdl,4.69
2023-02-10T02:26:00,sdl,4.78
2023-02-10T02:27:00,sdl,4.75
2023-02-10T02:28:00,sdl,5.19
2023-02-10T02:29:00,sdl,4.91
2023-02-10T02:30:00,sdl,5.29
2023-02-10T02:31:00,sdl,2.76
2023-02-10T02:32:00,sdl,2.88
2023-02-10T02:33:00,sdl,2.84
2023-02-10T02:34:00,sdl,2.76
2023-02-10T02:35:00,sdl,2.59
2023-02-10T02:36:00,sdl,2.64
2023-02-10T02:37:00,sdl,2.65
2023-02-10T02:38:00,sdl,0.95
2023-02-10T02:39:00,sdl,1.51
2023-02-10T02:40:00,sdl,0.94
2023-02-10T02:41:00,sdl,0.95
2023-02-10T02:42:00,sdl,1.02
2023-02-10T02:43:00,sdl,1.31
2023-02-10T02:44:00,sdl,1.04
2023-02-10T02:45:00,sdl,1.15
2023-02-10T02:46:00,sdl,3.33
2023-02-10T02:47:00,sdl,3.67
2023-02-10T02:48:00,sdl,3.67
2023-02-10T02:49:00,sdl,3.31
2023-02-10T02:50:00,sdl,3.20
2023-02-10T02:51:00,sdl,3.49
2023-02-10T02:52:00,sdl,4.30
2023-02-10T02:53:00,sdl,3.29
2023-02-10T02:54:00,sdl,3.29
2023-02-10T02:55:00,sdl,3.31
2023-02-10T02:56:00,sdl,3.34
2023-02-10T02:57:00,sdl,3.35
2023-02-10T02:58:00,sdl,3.78
2023-02-10T02:59:00,sdl,1.27
2023-02-10T03:00:00,sdl,1.16
2023-02-10T03:01:00,sdl,0.98
2023-02-10T03:02:00,sdl,1.05
2023-02-10T03:03:00,sdl,1.08
2023-02-10T03:04:00,sdl,1.12
2023-02-10T03:05:00,sdl,1.00
2023-02-10T03:06:00,sdl,1.04
2023-02-10T03:07:00,sdl,0.99
2023-02-10T03:08:00,sdl,1.11
2023-02-10T03:09:00,sdl,1.07
2023-02-10T03:10:00,sdl,1.46
2023-02-10T03:11:00,sdl,1.12
2023-02-10T03:12:00,sdl,1.84
2023-02-10T03:13:00,sdl,1.82
2023-02-10T03:14:00,sdl,1.72
2023-02-10T03:15:00,sdl,1.71
2023-02-10T03:16:00,sdl,1.72
2023-02-10T03:17:00,sdl,2.21
2023-02-10T03:18:00,sdl,2.07
2023-02-10T03:19:00,sdl,1.80
2023-02-10T03:20:00,sdl,1.75
2023-02-10T03:21:00,sdl,1.77
2023-02-10T03:22:00,sdl,2.11
2023-02-10T03:23:00,sdl,1.67
2023-02-10T03:24:00,sdl,1.72
2023-02-10T03:25:00,sdl,1.78
2023-02-10T03:26:00,sdl,1.85
2023-02-10T03:27:00,sdl,1.84
2023-02-10T03:28:00,sdl,1.74
2023-02-10T03:29:00,sdl,1.70
2023-02-10T03:30:00,sdl,3.89
2023-02-10T03:31:00,sdl,3.82
2023-02-10T03:32:00,sdl,3.77
2023-02-10T03:33:00,sdl,3.79
2023-02-10T03:34:00,sdl,3.74
2023-02-10T03:35:00,sdl,3.76
2023-02-10T03:36:00,sdl,3.71
2023-02-10T03:37:00,sdl,3.70
2023-02-10T03:38:00,sdl,3.73
2023-02-10T03:39:00,sdl,3.80
2023-02-10T03:40:00,sdl,3.76
2023-02-10T03:41:00,sdl,3.59
2023-02-10T03:42:00,sdl,4.71
2023-02-10T03:43:00,sdl,3.62
2023-02-10T03:44:00,sdl,3.63
2023-02-10T03:45:00,sdl,1.41
2023-02-10T03:46:00,sdl,1.46
2023-02-10T03:47:00,sdl,1.63
2023-02-10T03:48:00,sdl,1.06
2023-02-10T03:49:00,sdl,1.12
2023-02-10T03:50:00,sdl,1.07
2023-02-10T03:51:00,sdl,1.14
2023-02-10T03:52:00,sdl,1.36
2023-02-10T03:53:00,sdl,1.15
2023-02-10T03:54:00,sdl,1.54
2023-02-10T03:55:00,sdl,1.55
2023-02-10T03:56:00,sdl,1.13
2023-02-10T03:57:00,sdl,1.57
2023-02-10T03:58:00,sdl,1.17
2023-02-10T03:59:00,sdl,2.80
2023-02-10T04:00:00,sdl,2.91
2023-02-10T04:01:00,sdl,3.16
2023-02-10T04:02:00,sdl,2.88
2023-02-10T04:03:00,sdl,2.85
2023-02-10T04:04:00,sdl,2.92
2023-02-10T04:05:00,sdl,2.91
2023-02-10T04:06:00,sdl,3.00
2023-02-10T04:07:00,sdl,2.95
2023-02-10T04:08:00,sdl,2.90
2023-02-10T04:09:00,sdl,2.92
2023-02-10T04:10:00,sdl,2.96
2023-02-10T04:11:00,sdl,2.88
2023-02-10T04:12:00,sdl,3.00
2023-02-10T04:13:00,sdl,2.94
2023-02-10T04:14:00,sdl,2.90
2023-02-10T04:15:00,sdl,2.83
2023-02-10T04:16:00,sdl,5.04
2023-02-10T04:17:00,sdl,3.27
2023-02-10T04:18:00,sdl,3.29
2023-02-10T04:19:00,sdl,3.40
2023-02-10T04:20:00,sdl,3.26
2023-02-10T04:21:00,sdl,3.17
2023-02-10T04:22:00,sdl,3.16
2023-02-10T04:23:00,sdl,3.26
2023-02-10T04:24:00,sdl,3.31
2023-02-10T04:25:00,sdl,3.73
2023-02-10T04:26:00,sdl,1.48
2023-02-10T04:27:00,sdl,1.56
2023-02-10T04:28:00,sdl,1.18
2023-02-10T04:29:00,sdl,1.16
2023-02-10T04:30:00,sdl,1.17
2023-02-10T04:31:00,sdl,1.12
2023-02-10T04:32:00,sdl,1.18
2023-02-10T04:33:00,sdl,1.28
2023-02-10T04:34:00,sdl,1.31
2023-02-10T04:35:00,sdl,1.21
2023-02-10T04:36:00,sdl,1.14
2023-02-10T04:37:00,sdl,1.17
2023-02-10T04:38:00,sdl,1.67
2023-02-10T04:39:00,sdl,1.62
2023-02-10T04:40:00,sdl,1.63
2023-02-10T04:41:00,sdl,4.11
2023-02-10T04:42:00,sdl,3.81
2023-02-10T04:43:00,sdl,4.90
2023-02-10T04:44:00,sdl,3.69
2023-02-10T04:45:00,sdl,5.03
2023-02-10T04:46:00,sdl,5.13
2023-02-10T04:47:00,sdl,5.09
2023-02-10T04:48:00,sdl,5.11
2023-02-10T04:49:00,sdl,5.05
2023-02-10T04:50:00,sdl,4.99
2023-02-10T04:51:00,sdl,4.96
2023-02-10T04:52:00,sdl,5.03
2023-02-10T04:53:00,sdl,5.00
2023-02-10T04:54:00,sdl,4.98
2023-02-10T04:55:00,sdl,5.07
2023-02-10T04:56:00,sdl,2.87
2023-02-10T04:57:00,sdl,3.64
2023-02-10T04:58:00,sdl,2.85
2023-02-10T04:59:00,sdl,2.96
2023-02-10T05:00:00,sdl,2.86
2023-02-10T05:01:00,sdl,2.68
2023-02-10T05:02:00,sdl,3.02
2023-02-10T05:03:00,sdl,2.66
2023-02-10T05:04:00,sdl,2.68
2023-02-10T05:05:00,sdl,2.64
2023-02-10T05:06:00,sdl,2.76
2023-02-10T05:07:00,sdl,2.85
2023-02-10T05:08:00,sdl,2.87
2023-02-10T05:09:00,sdl,2.86
2023-02-10T05:10:00,sdl,2.93
2023-02-10T05:11:00,sdl,2.88
2023-02-10T05:12:00,sdl,2.81
2023-02-10T05:13:00,sdl,2.85
2023-02-10T05:14:00,sdl,3.00
2023-02-10T05:15:00,sdl,2.44
2023-02-10T05:16:00,sdl,2.46
2023-02-10T05:17:00,sdl,3.06
2023-02-10T05:18:00,sdl,2.52
2023-02-10T05:19:00,sdl,2.45
2023-02-10T05:20:00,sdl,2.47
2023-02-10T05:21:00,sdl,2.74
2023-02-10T05:22:00,sdl,2.37
2023-02-10T05:23:00,sdl,2.43
2023-02-10T05:24:00,sdl,2.41
2023-02-10T05:25:00,sdl,2.45
2023-02-10T05:26:00,sdl,2.47
2023-02-10T05:27:00,sdl,2.44
2023-02-10T05:28:00,sdl,4.60
2023-02-10T05:29:00,sdl,4.56
2023-02-10T05:30:00,sdl,4.83
2023-02-10T05:31:00,sdl,4.90
2023-02-10T05:32:00,sdl,4.54
2023-02-10T05:33:00,sdl,4.55
2023-02-10T05:34:00,sdl,4.94
2023-02-10T05:35:00,sdl,4.53
2023-02-10T05:36:00,sdl,5.99
2023-02-10T05:37:00,sdl,6.15
2023-02-10T05:38:00,sdl,6.20
2023-02-10T05:39:00,sdl,6.14
2023-02-10T05:40:00,sdl,6.58
2023-02-10T05:41:00,sdl,6.21
2023-02-10T05:42:00,sdl,6.53
2023-02-10T05:43:00,sdl,6.12
2023-02-10T05:44:00,sdl,3.92
2023-02-10T05:45:00,sdl,4.33
2023-02-10T05:46:00,sdl,3.95
2023-02-10T05:47:00,sdl,4.08
2023-02-10T05:48:00,sdl,4.09
2023-02-10T05:49:00,sdl,4.18
2023-02-10T05:50:00,sdl,4.09
2023-02-10T05:51:00,sdl,4.15
2023-02-10T05:52:00,sdl,4.05
2023-02-10T05:53:00,sdl,4.20
2023-02-10T05:54:00,sdl,4.23
2023-02-10T05:55:00,sdl,4.16
2023-02-10T05:56:00,sdl,4.05
2023-02-10T05:57:00,sdl,2.93
2023-02-10T05:58:00,sdl,2.76
2023-02-10T05:59:00,sdl,2.73
2023-02-10T06:00:00,sdl,2.39
2023-02-10T06:01:00,sdl,2.37
2023-02-10T06:02:00,sdl,2.37
2023-02-10T06:03:00,sdl,2.44
2023-02-10T06:04:00,sdl,2.44
2023-02-10T06:05:00,sdl,2.45
2023-02-10T06:06:00,sdl,2.95
2023-02-10T06:07:00,sdl,3.64
2023-02-10T06:08:00,sdl,3.65
2023-02-10T06:09:00,sdl,3.45
2023-02-10T06:10:00,sdl,3.76
2023-02-10T06:11:00,sdl,3.67
2023-02-10T06:12:00,sdl,5.88
2023-02-10T06:13:00,sdl,5.78
2023-02-10T06:14:00,sdl,5.81
2023-02-10T06:15:00,sdl,5.29
2023-02-10T06:16:00,sdl,5.32
2023-02-10T06:17:00,sdl,5.01
2023-02-10T06:18:00,sdl,5.04
2023-02-10T06:19:00,sdl,5.03
2023-02-10T06:20:00,sdl,5.07
2023-02-10T06:21:00,sdl,5.02
2023-02-10T06:22:00,sdl,5.07
2023-02-10T06:23:00,sdl,2.69
2023-02-10T06:24:00,sdl,2.71
2023-02-10T06:25:00,sdl,3.82
2023-02-10T06:26:00,sdl,3.30
2023-02-10T06:27:00,sdl,3.19
2023-02-10T06:28:00,sdl,3.15
2023-02-10T06:29:00,sdl,2.80
2023-02-10T06:30:00,sdl,2.79
2023-02-10T06:31:00,sdl,2.87
2023-02-10T06:32:00,sdl,2.87
2023-02-10T06:33:00,sdl,2.81
2023-02-10T06:34:00,sdl,2.85
2023-02-10T06:35:00,sdl,2.96
2023-02-10T06:36:00,sdl,2.99
2023-02-10T06:37:00,sdl,2.55
2023-02-10T06:38:00,sdl,4.63
2023-02-10T06:39:00,sdl,4.34
2023-02-10T06:40:00,sdl,5.36
2023-02-10T06:41:00,sdl,4.49
2023-02-10T06:42:00,sdl,4.81
2023-02-10T06:43:00,sdl,4.48
2023-02-10T06:44:00,sdl,4.54
2023-02-10T06:45:00,sdl,4.52
2023-02-10T06:46:00,sdl,4.58
2023-02-10T06:47:00,sdl,4.67
2023-02-10T06:48:00,sdl,4.68
2023-02-10T06:49:00,sdl,4.67
2023-02-10T06:50:00,sdl,4.69
2023-02-10T06:51:00,sdl,4.69
2023-02-10T06:52:00,sdl,5.03
2023-02-10T06:53:00,sdl,4.96
2023-02-10T06:54:00,sdl,2.82
2023-02-10T06:55:00,sdl,2.79
2023-02-10T06:56:00,sdl,3.34
2023-02-10T06:57:00,sdl,2.96
2023-02-10T06:58:00,sdl,2.51
2023-02-10T06:59:00,sdl,2.40
2023-02-10T07:00:00,sdl,2.54
2023-02-10T07:01:00,sdl,3.00
2023-02-10T07:02:00,sdl,2.88
2023-02-10T07:03:00,sdl,2.53
2023-02-10T07:04:00,sdl,2.52
2023-02-10T07:05:00,sdl,2.53
2023-02-10T07:06:00,sdl,2.56
2023-02-10T07:07:00,sdl,2.55
2023-02-10T07:08:00,sdl,2.56
2023-02-10T07:09:00,sdl,2.86
2023-02-10T07:10:00,sdl,2.54
2023-02-10T07:11:00,sdl,2.47
2023-02-10T07:12:00,sdl,3.18
2023-02-10T07:13:00,sdl,2.53
2023-02-10T07:14:00,sdl,2.66
2023-02-10T07:15:00,sdl,2.68
2023-02-10T07:16:00,sdl,2.66
2023-02-10T07:17:00,sdl,4.35
2023-02-10T07:18:00,sdl,4.04
2023-02-10T07:19:00,sdl,3.98
2023-02-10T07:20:00,sdl,4.02
2023-02-10T07:21:00,sdl,3.93
2023-02-10T07:22:00,sdl,3.99
2023-02-10T07:23:00,sdl,4.02
2023-02-10T07:24:00,sdl,4.01
2023-02-10T07:25:00,sdl,4.31
2023-02-10T07:26:00,sdl,6.47
2023-02-10T07:27:00,sdl,6.16
2023-02-10T07:28:00,sdl,6.33
2023-02-10T07:29:00,sdl,6.31
2023-02-10T07:30:00,sdl,6.21
2023-02-10T07:31:00,sdl,6.28
2023-02-10T07:32:00,sdl,6.28
2023-02-10T07:33:00,sdl,6.25
2023-02-10T07:34:00,sdl,4.46
2023-02-10T07:35:00,sdl,4.43
2023-02-10T07:36:00,sdl,4.37
2023-02-10T07:37:00,sdl,4.55
2023-02-10T07:38:00,sdl,4.58
2023-02-10T07:39:00,sdl,4.33
2023-02-10T07:40:00,sdl,4.33
2023-02-10T07:41:00,sdl,4.47
2023-02-10T07:42:00,sdl,2.74
2023-02-10T07:43:00,sdl,2.34
2023-02-10T07:44:00,sdl,2.29
2023-02-10T07:45:00,sdl,2.31
2023-02-10T07:46:00,sdl,2.42
2023-02-10T07:47:00,sdl,2.39
2023-02-10T07:48:00,sdl,2.27
2023-02-10T07:49:00,sdl,2.58
2023-02-10T07:50:00,sdl,2.31
2023-02-10T07:51:00,sdl,2.46
2023-02-10T07:52:00,sdl,2.45
2023-02-10T07:53:00,sdl,2.79
2023-02-10T07:54:00,sdl,3.16
2023-02-10T07:55:00,sdl,2.54
2023-02-10T07:56:00,sdl,2.58
2023-02-10T07:57:00,sdl,2.50
2023-02-10T07:58:00,sdl,2.52
2023-02-10T07:59:00,sdl,2.52
2023-02-10T08:00:00,sdl,2.56
2023-02-10T08:01:00,sdl,2.51
2023-02-10T08:02:00,sdl,2.51
2023-02-10T08:03:00,sdl,2.31
2023-02-10T08:04:00,sdl,2.30
2023-02-10T08:05:00,sdl,2.31
2023-02-10T08:06:00,sdl,2.30
2023-02-10T08:07:00,sdl,2.30
2023-02-10T08:08:00,sdl,2.43
2023-02-10T08:09:00,sdl,2.40
2023-02-10T08:10:00,sdl,2.50
2023-02-10T08:11:00,sdl,4.98
2023-02-10T08:12:00,sdl,4.97
2023-02-10T08:13:00,sdl,4.99
2023-02-10T08:14:00,sdl,4.90
2023-02-10T08:15:00,sdl,4.83
2023-02-10T08:16:00,sdl,5.03
2023-02-10T08:17:00,sdl,4.67
2023-02-10T08:18:00,sdl,4.69
2023-02-10T08:19:00,sdl,4.37
2023-02-10T08:20:00,sdl,4.44
2023-02-10T08:21:00,sdl,2.51
2023-02-10T08:22:00,sdl,2.54
2023-02-10T08:23:00,sdl,2.16
2023-02-10T08:24:00,sdl,2.28
2023-02-10T08:25:00,sdl,2.63
2023-02-10T08:26:00,sdl,2.34
2023-02-10T08:27:00,sdl,2.30
2023-02-10T08:28:00,sdl,2.20
2023-02-10T08:29:00,sdl,5.71
2023-02-10T08:30:00,sdl,2.24
2023-02-10T08:31:00,sdl,2.15
2023-02-10T08:32:00,sdl,2.10
2023-02-10T08:33:00,sdl,2.20
2023-02-10T08:34:00,sdl,2.21
2023-02-10T08:35:00,sdl,2.86
2023-02-10T08:36:00,sdl,4.63
2023-02-10T08:37:00,sdl,4.51
2023-02-10T08:38:00,sdl,4.82
2023-02-10T08:39:00,sdl,4.56
2023-02-10T08:40:00,sdl,9.02
2023-02-10T08:41:00,sdl,4.56
2023-02-10T08:42:00,sdl,5.47
2023-02-10T08:43:00,sdl,5.29
2023-02-10T08:44:00,sdl,4.93
2023-02-10T08:45:00,sdl,4.84
2023-02-10T08:46:00,sdl,4.47
2023-02-10T08:47:00,sdl,4.47
2023-02-10T08:48:00,sdl,4.47
2023-02-10T08:49:00,sdl,4.61
2023-02-10T08:50:00,sdl,4.61
2023-02-10T08:51:00,sdl,2.37
2023-02-10T08:52:00,sdl,2.73
2023-02-10T08:53:00,sdl,4.41
2023-02-10T08:54:00,sdl,4.04
2023-02-10T08:55:00,sdl,4.07
2023-02-10T08:56:00,sdl,4.16
2023-02-10T08:57:00,sdl,4.04
2023-02-10T08:58:00,sdl,5.46
2023-02-10T08:59:00,sdl,5.31
2023-02-10T09:00:00,sdl,6.36
2023-02-10T09:01:00,sdl,6.44
2023-02-10T09:02:00,sdl,6.48
2023-02-10T09:03:00,sdl,6.49
2023-02-10T09:04:00,sdl,6.51
2023-02-10T09:05:00,sdl,6.44
2023-02-10T09:06:00,sdl,11.85
2023-02-10T09:07:00,sdl,7.40
2023-02-10T09:08:00,sdl,7.53
2023-02-10T09:09:00,sdl,7.13
2023-02-10T09:10:00,sdl,5.10
2023-02-10T09:11:00,sdl,5.18
2023-02-10T09:12:00,sdl,5.35
2023-02-10T09:13:00,sdl,5.40
2023-02-10T09:14:00,sdl,5.44
2023-02-10T09:15:00,sdl,6.24
2023-02-10T09:16:00,sdl,5.58
2023-02-10T09:17:00,sdl,5.97
2023-02-10T09:18:00,sdl,6.06
2023-02-10T09:19:00,sdl,6.04
2023-02-10T09:20:00,sdl,6.08
2023-02-10T09:21:00,sdl,6.03
2023-02-10T09:22:00,sdl,6.52
2023-02-10T09:23:00,sdl,8.18
2023-02-10T09:24:00,sdl,8.14
2023-02-10T09:25:00,sdl,8.13
2023-02-10T09:26:00,sdl,10.96
2023-02-10T09:27:00,sdl,8.07
2023-02-10T09:28:00,sdl,8.07
2023-02-10T09:29:00,sdl,7.98
2023-02-10T09:30:00,sdl,8.10
2023-02-10T09:31:00,sdl,8.54
2023-02-10T09:32:00,sdl,8.16
2023-02-10T09:33:00,sdl,8.58
2023-02-10T09:34:00,sdl,8.31
2023-02-10T09:35:00,sdl,8.37
2023-02-10T09:36:00,sdl,8.33
2023-02-10T09:37:00,sdl,8.37
2023-02-10T09:38:00,sdl,9.07
2023-02-10T09:39:00,sdl,6.55
2023-02-10T09:40:00,sdl,6.55
2023-02-10T09:41:00,sdl,6.35
2023-02-10T09:42:00,sdl,6.22
2023-02-10T09:43:00,sdl,6.41
2023-02-10T09:44:00,sdl,6.35
2023-02-10T09:45:00,sdl,6.25
2023-02-10T09:46:00,sdl,7.06
2023-02-10T09:47:00,sdl,6.43
2023-02-10T09:48:00,sdl,6.49
2023-02-10T09:49:00,sdl,6.34
2023-02-10T09:50:00,sdl,6.38
2023-02-10T09:51:00,sdl,6.35
2023-02-10T09:52:00,sdl,6.21
2023-02-10T09:53:00,sdl,6.21
2023-02-10T09:54:00,sdl,6.17
2023-02-10T09:55:00,sdl,6.56
2023-02-10T09:56:00,sdl,6.01
2023-02-10T09:57:00,sdl,6.03
2023-02-10T09:58:00,sdl,6.04
2023-02-10T09:59:00,sdl,6.04
2023-02-10T10:00:00,sdl,6.33
2023-02-10T10:01:00,sdl,6.04
2023-02-10T10:02:00,sdl,6.02
2023-02-10T10:03:00,sdl,8.74
2023-02-10T10:04:00,sdl,8.42
2023-02-10T10:05:00,sdl,8.44
2023-02-10T10:06:00,sdl,8.44
2023-02-10T10:07:00,sdl,8.90
2023-02-10T10:08:00,sdl,9.10
2023-02-10T10:09:00,sdl,8.83
2023-02-10T10:10:00,sdl,9.06
2023-02-10T10:11:00,sdl,8.93
2023-02-10T10:12:00,sdl,6.93
2023-02-10T10:13:00,sdl,6.81
2023-02-10T10:14:00,sdl,5.58
2023-02-10T10:15:00,sdl,6.28
2023-02-10T10:16:00,sdl,5.31
2023-02-10T10:17:00,sdl,5.46
2023-02-10T10:18:00,sdl,5.39
2023-02-10T10:19:00,sdl,5.42
2023-02-10T10:20:00,sdl,5.48
2023-02-10T10:21:00,sdl,5.37
2023-02-10T10:22:00,sdl,5.64
2023-02-10T10:23:00,sdl,5.49
2023-02-10T10:24:00,sdl,5.54
2023-02-10T10:25:00,sdl,5.80
2023-02-10T10:26:00,sdl,5.49
2023-02-10T10:27:00,sdl,5.42
2023-02-10T10:28:00,sdl,9.35
2023-02-10T10:29:00,sdl,9.35
2023-02-10T10:30:00,sdl,10.38
2023-02-10T10:31:00,sdl,9.44
2023-02-10T10:32:00,sdl,9.48
2023-02-10T10:33:00,sdl,9.58
2023-02-10T10:34:00,sdl,9.97
2023-02-10T10:35:00,sdl,9.96
2023-02-10T10:36:00,sdl,9.91
2023-02-10T10:37:00,sdl,9.43
2023-02-10T10:38:00,sdl,9.63
2023-02-10T10:39:00,sdl,9.52
2023-02-10T10:40:00,sdl,9.36
2023-02-10T10:41:00,sdl,9.41
2023-02-10T10:42:00,sdl,9.50
2023-02-10T10:43:00,sdl,9.47
2023-02-10T10:44:00,sdl,7.70
2023-02-10T10:45:00,sdl,7.71
2023-02-10T10:46:00,sdl,5.51
2023-02-10T10:47:00,sdl,5.60
2023-02-10T10:48:00,sdl,5.62
2023-02-10T10:49:00,sdl,5.59
2023-02-10T10:50:00,sdl,5.64
2023-02-10T10:51:00,sdl,5.71
2023-02-10T10:52:00,sdl,5.76
2023-02-10T10:53:00,sdl,5.57
2023-02-10T10:54:00,sdl,5.65
2023-02-10T10:55:00,sdl,5.82
2023-02-10T10:56:00,sdl,5.79
2023-02-10T10:57:00,sdl,6.10
2023-02-10T10:58:00,sdl,5.92
2023-02-10T10:59:00,sdl,5.84
2023-02-10T11:00:00,sdl,5.94
2023-02-10T11:01:00,sdl,6.35
2023-02-10T11:02:00,sdl,6.36
2023-02-10T11:03:00,sdl,6.05
2023-02-10T11:04:00,sdl,6.11
2023-02-10T11:05:00,sdl,6.22
2023-02-10T11:06:00,sdl,6.16
2023-02-10T11:07:00,sdl,6.12
2023-02-10T11:08:00,sdl,6.06
2023-02-10T11:09:00,sdl,6.41
2023-02-10T11:10:00,sdl,6.46
2023-02-10T11:11:00,sdl,6.43
2023-02-10T11:12:00,sdl,8.66
2023-02-10T11:13:00,sdl,9.35
2023-02-10T11:14:00,sdl,8.74
2023-02-10T11:15:00,sdl,9.17
2023-02-10T11:16:00,sdl,8.78
2023-02-10T11:17:00,sdl,8.75
2023-02-10T11:18:00,sdl,8.90
2023-02-10T11:19:00,sdl,8.81
2023-02-10T11:20:00,sdl,8.75
2023-02-10T11:21:00,sdl,8.61
2023-02-10T11:22:00,sdl,8.74
2023-02-10T11:23:00,sdl,7.75
2023-02-10T11:24:00,sdl,6.29
2023-02-10T11:25:00,sdl,5.90
2023-02-10T11:26:00,sdl,5.89
2023-02-10T11:27:00,sdl,6.46
2023-02-10T11:28:00,sdl,3.67
2023-02-10T11:29:00,sdl,3.62
2023-02-10T11:30:00,sdl,4.06
2023-02-10T11:31:00,sdl,4.26
2023-02-10T11:32:00,sdl,3.82
2023-02-10T11:33:00,sdl,3.68
2023-02-10T11:34:00,sdl,3.69
2023-02-10T11:35:00,sdl,3.63
2023-02-10T11:36:00,sdl,3.65
2023-02-10T11:37:00,sdl,3.81
2023-02-10T11:38:00,sdl,4.24
2023-02-10T11:39:00,sdl,4.00
2023-02-10T11:40:00,sdl,4.01
2023-02-10T11:41:00,sdl,5.53
2023-02-10T11:42:00,sdl,4.03
2023-02-10T11:43:00,sdl,4.67
2023-02-10T11:44:00,sdl,3.73
2023-02-10T11:45:00,sdl,3.84
2023-02-10T11:46:00,sdl,3.66
2023-02-10T11:47:00,sdl,3.60
2023-02-10T11:48:00,sdl,3.52
2023-02-10T11:49:00,sdl,3.50
2023-02-10T11:50:00,sdl,3.26
2023-02-10T11:51:00,sdl,3.25
2023-02-10T11:52:00,sdl,3.58
2023-02-10T11:53:00,sdl,3.78
2023-02-10T11:54:00,sdl,5.80
2023-02-10T11:55:00,sdl,5.78
2023-02-10T11:56:00,sdl,5.35
2023-02-10T11:57:00,sdl,5.64
2023-02-10T11:58:00,sdl,5.79
2023-02-10T11:59:00,sdl,5.77
2023-02-10T12:00:00,sdl,7.50
2023-02-10T12:01:00,sdl,5.65
2023-02-10T12:02:00,sdl,5.70
2023-02-10T12:03:00,sdl,7.35
2023-02-10T12:04:00,sdl,7.61
2023-02-10T12:05:00,sdl,5.07
2023-02-10T12:06:00,sdl,4.08
2023-02-10T12:07:00,sdl,4.01
2023-02-10T12:08:00,sdl,4.03
2023-02-10T12:09:00,sdl,4.02
2023-02-10T12:10:00,sdl,4.05
2023-02-10T12:11:00,sdl,4.45
2023-02-10T12:12:00,sdl,5.56
2023-02-10T12:13:00,sdl,5.54
2023-02-10T12:14:00,sdl,5.49
2023-02-10T12:15:00,sdl,5.53
2023-02-10T12:16:00,sdl,5.48
2023-02-10T12:17:00,sdl,5.01
2023-02-10T12:18:00,sdl,4.95
2023-02-10T12:19:00,sdl,7.07
2023-02-10T12:20:00,sdl,7.07
2023-02-10T12:21:00,sdl,7.04
2023-02-10T12:22:00,sdl,5.18
2023-02-10T12:23:00,sdl,5.27
2023-02-10T12:24:00,sdl,5.31
2023-02-10T12:25:00,sdl,5.46
2023-02-10T12:26:00,sdl,5.46
2023-02-10T12:27:00,sdl,5.33
2023-02-10T12:28:00,sdl,5.35
2023-02-10T12:29:00,sdl,5.35
2023-02-10T12:30:00,sdl,5.81
2023-02-10T12:31:00,sdl,5.46
2023-02-10T12:32:00,sdl,5.30
2023-02-10T12:33:00,sdl,5.19
2023-02-10T12:34:00,sdl,5.72
2023-02-10T12:35:00,sdl,3.36
2023-02-10T12:36:00,sdl,3.47
2023-02-10T12:37:00,sdl,3.42
2023-02-10T12:38:00,sdl,3.53
2023-02-10T12:39:00,sdl,3.59
2023-02-10T12:40:00,sdl,3.60
2023-02-10T12:41:00,sdl,3.52
2023-02-10T12:42:00,sdl,3.91
2023-02-10T12:43:00,sdl,3.99
2023-02-10T12:44:00,sdl,3.56
2023-02-10T12:45:00,sdl,3.61
2023-02-10T12:46:00,sdl,3.58
2023-02-10T12:47:00,sdl,3.57
2023-02-10T12:48:00,sdl,4.84
2023-02-10T12:49:00,sdl,5.13
2023-02-10T12:50:00,sdl,3.56
2023-02-10T12:51:00,sdl,3.56
2023-02-10T12:52:00,sdl,3.66
2023-02-10T12:53:00,sdl,4.05
2023-02-10T12:54:00,sdl,3.56
2023-02-10T12:55:00,sdl,3.66
2023-02-10T12:56:00,sdl,3.61
2023-02-10T12:57:00,sdl,3.44
2023-02-10T12:58:00,sdl,3.41
2023-02-10T12:59:00,sdl,3.41
2023-02-10T13:00:00,sdl,3.45
2023-02-10T13:01:00,sdl,5.55
2023-02-10T13:02:00,sdl,5.53
2023-02-10T13:03:00,sdl,5.44
2023-02-10T13:04:00,sdl,5.54
2023-02-10T13:05:00,sdl,5.55
2023-02-10T13:06:00,sdl,5.71
2023-02-10T13:07:00,sdl,5.67
2023-02-10T13:08:00,sdl,5.17
2023-02-10T13:09:00,sdl,5.25
2023-02-10T13:10:00,sdl,5.10
2023-02-10T13:11:00,sdl,5.12
2023-02-10T13:12:00,sdl,5.12
2023-02-10T13:13:00,sdl,5.54
2023-02-10T13:14:00,sdl,5.54
2023-02-10T13:15:00,sdl,5.24
2023-02-10T13:16:00,sdl,5.49
2023-02-10T13:17:00,sdl,2.99
2023-02-10T13:18:00,sdl,4.45
2023-02-10T13:19:00,sdl,4.52
2023-02-10T13:20:00,sdl,4.50
2023-02-10T13:21:00,sdl,4.41
2023-02-10T13:22:00,sdl,4.49
2023-02-10T13:23:00,sdl,3.15
2023-02-10T13:24:00,sdl,3.18
2023-02-10T13:25:00,sdl,3.27
2023-02-10T13:26:00,sdl,3.26
2023-02-10T13:27:00,sdl,3.13
2023-02-10T13:28:00,sdl,3.24
2023-02-10T13:29:00,sdl,3.16
2023-02-10T13:30:00,sdl,3.44
2023-02-10T13:31:00,sdl,3.06
2023-02-10T13:32:00,sdl,3.09
2023-02-10T13:33:00,sdl,3.22
2023-02-10T13:34:00,sdl,3.11
2023-02-10T13:35:00,sdl,4.69
2023-02-10T13:36:00,sdl,3.56
2023-02-10T13:37:00,sdl,3.40
2023-02-10T13:38:00,sdl,3.52
2023-02-10T13:39:00,sdl,3.62
2023-02-10T13:40:00,sdl,3.58
2023-02-10T13:41:00,sdl,3.29
2023-02-10T13:42:00,sdl,4.95
2023-02-10T13:43:00,sdl,12.37
2023-02-10T13:44:00,sdl,7.24
2023-02-10T13:45:00,sdl,7.32